User: anonymous   Login
Location: Lawrence Hall of Science
(37.8785°N, 122.2415°W)
Time: 23:21:12
(UTC-07:00)
Language:

ARGOS - Orbit

View from above orbital plane
View from above orbital plane
View from above satellite
View from above satellite

Ground track
Ground track

The orbit data is extracted from the following two-line orbital elements,

1 25634U 99008A   15115.41330703  .00000110  00000-0  73409-4 0  9999
2 25634 098.7185 183.7494 0009256 309.3272 112.2811 14.19234202837297
Epoch (UTC): 25 April 2015 09:55:09
Eccentricity: 0.0009256
inclination: 98.7185°
perigee height: 821 km
apogee height: 834 km
right ascension of ascending node: 183.7494°
argument of perigee: 309.3272°
revolutions per day: 14.19234202
mean anomaly at epoch: 112.2811°
orbit number at epoch: 83729

The dashed part of the orbit path shows where the satellite is in the earth's shadow,  

DLR